Location: Qu�bec
(46.8000°N, 71.2500°W)
Time: 16:47:31
(UTC-05:00)

Envisat - Visible Passes

Search period start: 22 January 2018 00:00
Search period end: 01 February 2018 00:00
Orbit: 764 x 766 km, 98.2° (Epoch: 22 January)

Date Brightness Start Highest point End Pass type
(mag) Time Alt. Az. Time Alt. Az. Time Alt. Az.
22 Jan 4.6 17:33:45 13° ENE 17:34:43 14° NE 17:37:17 10° NNE visible
22 Jan 3.2 19:13:57 60° N 19:13:57 60° N 19:18:06 10° NNW visible
22 Jan 5.9 20:54:07 12° WNW 20:54:07 12° WNW 20:55:03 10° WNW visible
23 Jan 3.3 18:36:31 42° ENE 18:36:31 42° ENE 18:41:09 10° N visible
23 Jan 5.0 20:16:42 25° WNW 20:16:42 25° WNW 20:19:52 10° NW visible
24 Jan 6.3 06:39:57 10° ENE 06:41:24 11° E 06:42:52 10° ESE visible
24 Jan 4.1 17:59:05 21° ENE 17:59:58 22° ENE 18:03:48 10° NNE visible
24 Jan 3.6 19:39:16 53° WNW 19:39:16 53° WNW 19:43:38 10° NNW visible
25 Jan 4.8 17:22:08 10° ENE 17:23:46 12° NE 17:25:24 10° NE visible
25 Jan 2.8 19:01:50 70° ENE 19:01:51 70° ENE 19:06:56 10° N visible
25 Jan 5.6 20:42:01 16° W 20:42:01 16° W 20:44:36 10° NW visible
26 Jan 3.5 18:24:23 32° E 18:25:19 34° ENE 18:29:53 10° N visible
26 Jan 4.5 20:04:35 34° W 20:04:35 34° W 20:08:56 10° NNW visible
27 Jan 4.3 17:46:56 15° E 17:48:58 18° ENE 17:52:21 10° NNE visible
27 Jan 3.1 19:27:07 69° SW 19:27:26 71° WSW 19:32:33 10° NNW visible
28 Jan 3.0 18:49:40 46° ESE 18:50:46 56° ENE 18:55:45 10° N visible
28 Jan 5.2 20:29:50 20° W 20:30:08 21° W 20:33:55 10° NW visible
29 Jan 3.8 18:12:11 21° ESE 18:14:17 28° ENE 18:18:35 10° N visible
29 Jan 4.1 19:52:22 39° WSW 19:53:08 42° W 19:57:57 10° NNW visible
30 Jan 4.5 17:35:09 10° E 17:37:59 15° ENE 17:40:49 10° NNE visible
30 Jan 2.9 19:14:53 49° SSE 19:16:18 88° WSW 19:21:26 10° NNW visible
30 Jan 5.9 20:55:04 11° W 20:56:04 12° W 20:57:58 10° WNW visible
31 Jan 3.2 18:37:24 28° SE 18:39:40 46° ENE 18:44:32 10° N visible
31 Jan 5.0 20:17:36 23° WSW 20:18:54 25° W 20:23:06 10° NW visible
